{"data":{"norad_id":68956,"epoch":"2026-05-25T04:00:03.998880Z","epoch_age_seconds":71053,"freshness":"FRESH","line1":"1 68956U 26099F   26145.16671295 -.01899195  00000+0 -21198-1 0  9990","line2":"2 68956  53.1591 270.1082 0000925  83.4137 191.9738 15.65265716  5010","mean_motion":15.65265716,"eccentricity":9.25e-5,"inclination_deg":53.1591,"raan_deg":270.1082,"arg_perigee_deg":83.4137,"mean_anomaly_deg":191.9738,"bstar":-0.021198,"rev_number":501,"period_min":91.99715966947,"perigee_km":371.85024062028,"apogee_km":373.09910377964,"semimajor_km":6750.6116722,"source":"CELESTRAK","updated_at":"2026-05-25T13:38:22.072780Z"}}